Weather in Baicheng

China     45°36′58″N   122°50′57″E
temp.,
°C
wind,
m/s
gust,
m/s
humid.,
%
clouds,
%
prec.,
mm/h
press.,
hPa
HPBL,
m
8 may, sat
sat823:00+10ese61069100 0.1 992534
02:00+8ene71089100 8.0 990976
05:00+8nne71482100 12.8 9901605
08:00+8n112073100 13.6 9941661
11:00+13n131939100 0.1 9952203
14:00+15n11162990 0.1 9962769
17:00+15nne7133054 0.0 9972816
20:00+12n2240100 0.0 100030
9 may, sun
sun923:00+11nnw234886 0.0 100246
02:00+9nw37574 0.0 1003127
05:00+8nnw37581 0.0 1005123
08:00+13nw35383 0.0 1006909
11:00+17nnw582527 0.0 10052919
14:00+19nnw592077 0.0 10043408
17:00+19nw362125 0.0 10042707
20:00+15ssw113381 0.0 100614
10 may, mon
mon1023:00+13sw11389 0.0 100711
02:00+12w2240100 0.0 100824
05:00+13n5941100 0.0 1009163
08:00+17ene22335 0.1 1010614
11:00+20sw232684 0.0 10102916
14:00+21wsw242172 0.0 10093168
17:00+22w241956 0.0 10093121
20:00+18se333053 0.0 101036
11 may, tue
tue1123:00+15sse510400 0.0 1011204
02:00+13sse412475 0.0 1010249
05:00+12sse6155388 0.0 1010329
08:00+18sse8134173 0.0 1009647
11:00+23s111630100 0.0 10051783
14:00+26s121722100 0.0 10023250
17:00+23s112022100 0.0 10003021
20:00+20ssw111733100 0.1 10011207
12 may, wed
wed1223:00+17nw3558100 0.2 1003301
02:00+15sw346163 0.2 100277
05:00+12sw4125731 0.0 1003265
08:00+17w1014270 0.0 10041534
11:00+20w8122724 0.0 10042521
14:00+23w811160 0.0 10043298
17:00+24w710145 0.0 10043668
20:00+18wsw47240 0.0 100696